N395T KISP-KACK

Flight info

Callsign N395T
Flight time 2h 8m
Altitude 13500
Route KGHG 7B2
Aircraft PC12/L-SDFGRWY/S

Departure

Time 2026-04-21 13:01
Airport Long Island MacArthur Airport (KISP)

Arrival

Time 2026-04-21 15:10
Airport Nantucket Memorial Airport (KACK)
Time Latitude Longitude Altitude Speed Heading
2026-04-21 12:53 40.80087 -73.10838 91 ft 0 kts 360°
2026-04-21 12:56 40.80098 -73.10832 92 ft 4 kts 54°
2026-04-21 12:57 40.80102 -73.10786 91 ft 6 kts 93°
2026-04-21 12:57 40.80072 -73.10731 91 ft 9 kts 156°
2026-04-21 12:57 40.79997 -73.10719 91 ft 12 kts 181°
2026-04-21 12:57 40.79901 -73.10719 91 ft 15 kts 180°
2026-04-21 12:58 40.79787 -73.10721 91 ft 18 kts 179°
2026-04-21 12:58 40.79658 -73.10721 94 ft 20 kts 180°
2026-04-21 12:58 40.79518 -73.10721 91 ft 21 kts 180°
2026-04-21 12:58 40.79380 -73.10770 93 ft 21 kts 225°
2026-04-21 12:59 40.79305 -73.10940 91 ft 22 kts 247°
2026-04-21 12:59 40.79215 -73.11097 91 ft 22 kts 224°
2026-04-21 12:59 40.79115 -73.11228 91 ft 20 kts 225°
2026-04-21 12:59 40.79024 -73.11346 91 ft 18 kts 215°
2026-04-21 13:00 40.78932 -73.11313 92 ft 15 kts 135°
2026-04-21 13:00 40.78887 -73.11233 96 ft 11 kts 92°
2026-04-21 13:00 40.78995 -73.11074 95 ft 45 kts 45°
2026-04-21 13:00 40.79325 -73.10639 109 ft 84 kts 44°
2026-04-21 13:01 40.79624 -73.10253 196 ft 96 kts 43°
2026-04-21 13:01 40.80141 -73.09559 421 ft 115 kts 44°
2026-04-21 13:01 40.80730 -73.08750 849 ft 126 kts 44°
2026-04-21 13:01 40.81349 -73.07930 1404 ft 130 kts 44°
2026-04-21 13:02 40.82021 -73.07102 1925 ft 133 kts 44°
2026-04-21 13:02 40.82745 -73.06249 2292 ft 147 kts 44°
2026-04-21 13:02 40.84462 -73.04240 2900 ft 179 kts 44°
2026-04-21 13:03 40.85412 -73.03119 3198 ft 186 kts 44°
2026-04-21 13:03 40.86377 -73.01971 3484 ft 192 kts 44°
2026-04-21 13:03 40.87376 -73.00760 3780 ft 198 kts 44°
2026-04-21 13:03 40.88395 -72.99507 4077 ft 201 kts 44°
2026-04-21 13:04 40.89421 -72.98237 4371 ft 203 kts 44°
2026-04-21 13:04 40.90435 -72.96970 4712 ft 202 kts 44°
2026-04-21 13:04 40.91447 -72.95693 5063 ft 200 kts 44°
2026-04-21 13:04 40.92461 -72.94402 5412 ft 200 kts 43°
2026-04-21 13:05 40.93417 -72.93101 5750 ft 199 kts 49°
2026-04-21 13:05 40.94205 -72.91587 6101 ft 199 kts 55°
2026-04-21 13:05 40.94963 -72.90052 6451 ft 200 kts 53°
2026-04-21 13:05 40.95760 -72.88539 6809 ft 200 kts 52°
2026-04-21 13:06 40.96567 -72.87038 7146 ft 201 kts 51°
2026-04-21 13:06 40.97363 -72.85550 7463 ft 201 kts 51°
2026-04-21 13:06 40.98168 -72.84039 7802 ft 201 kts 50°
2026-04-21 13:06 40.98975 -72.82523 8141 ft 200 kts 50°
2026-04-21 13:07 40.99779 -72.81014 8488 ft 200 kts 50°
2026-04-21 13:07 41.00573 -72.79524 8824 ft 200 kts 49°
2026-04-21 13:07 41.01377 -72.78013 9174 ft 200 kts 49°
2026-04-21 13:07 41.02176 -72.76511 9545 ft 200 kts 48°
2026-04-21 13:08 41.02979 -72.75001 9889 ft 199 kts 48°
2026-04-21 13:08 41.03776 -72.73501 10248 ft 199 kts 47°
2026-04-21 13:08 41.04575 -72.71997 10574 ft 199 kts 47°
2026-04-21 13:08 41.05374 -72.70493 10899 ft 199 kts 47°
2026-04-21 13:09 41.06157 -72.69018 11222 ft 198 kts 47°
2026-04-21 13:09 41.06953 -72.67517 11550 ft 198 kts 46°
2026-04-21 13:09 41.07745 -72.66022 11885 ft 198 kts 46°
2026-04-21 13:09 41.08537 -72.64527 12223 ft 197 kts 46°
2026-04-21 13:10 41.09327 -72.63037 12558 ft 197 kts 46°
2026-04-21 13:10 41.10105 -72.61567 12899 ft 197 kts 46°
2026-04-21 13:10 41.10891 -72.60081 13255 ft 197 kts 45°
2026-04-21 13:10 41.11677 -72.58596 13597 ft 196 kts 45°
2026-04-21 13:11 41.12464 -72.57107 13950 ft 196 kts 45°
2026-04-21 13:11 41.13248 -72.55625 14298 ft 196 kts 45°
2026-04-21 13:11 41.14018 -72.54166 14601 ft 195 kts 44°
2026-04-21 13:11 41.14799 -72.52687 14926 ft 195 kts 44°
2026-04-21 13:12 41.15582 -72.51208 15122 ft 202 kts 44°
2026-04-21 13:12 41.16446 -72.49595 14914 ft 225 kts 45°
2026-04-21 13:12 41.17379 -72.47825 14679 ft 241 kts 47°
2026-04-21 13:12 41.18348 -72.45965 14440 ft 251 kts 47°
2026-04-21 13:13 41.19359 -72.44031 14196 ft 258 kts 47°
2026-04-21 13:13 41.20393 -72.42066 13925 ft 261 kts 47°
2026-04-21 13:13 41.21438 -72.40078 13649 ft 263 kts 48°
2026-04-21 13:13 41.22484 -72.38087 13495 ft 259 kts 48°
2026-04-21 13:14 41.23492 -72.36163 13498 ft 254 kts 47°
2026-04-21 13:14 41.24497 -72.34249 13493 ft 250 kts 47°
2026-04-21 13:14 41.25491 -72.32359 13499 ft 248 kts 47°
2026-04-21 13:14 41.26473 -72.30488 13496 ft 246 kts 47°
2026-04-21 13:15 41.27449 -72.28625 13500 ft 245 kts 47°
2026-04-21 13:15 41.28423 -72.26766 13507 ft 244 kts 47°
2026-04-21 13:15 41.29392 -72.24915 13504 ft 244 kts 47°
2026-04-21 13:15 41.30363 -72.23059 13507 ft 244 kts 47°
2026-04-21 13:16 41.31296 -72.21273 13509 ft 244 kts 47°
2026-04-21 13:16 41.32290 -72.19372 13506 ft 244 kts 47°
2026-04-21 13:16 41.33258 -72.17517 13511 ft 244 kts 47°
2026-04-21 13:16 41.34222 -72.15669 13507 ft 244 kts 47°
2026-04-21 13:17 41.35200 -72.13796 13507 ft 245 kts 47°
2026-04-21 13:17 41.36174 -72.11927 13511 ft 246 kts 48°
2026-04-21 13:17 41.37152 -72.10048 13510 ft 247 kts 48°
2026-04-21 13:17 41.38122 -72.08184 13510 ft 247 kts 47°
2026-04-21 13:18 41.39103 -72.06297 13508 ft 248 kts 48°
2026-04-21 13:18 41.40084 -72.04410 13510 ft 248 kts 48°
2026-04-21 13:18 41.41066 -72.02519 13507 ft 248 kts 48°
2026-04-21 13:18 41.42051 -72.00623 13505 ft 248 kts 48°
2026-04-21 13:19 41.43033 -71.98729 13503 ft 249 kts 48°
2026-04-21 13:19 41.44017 -71.96832 13508 ft 249 kts 48°
2026-04-21 13:19 41.44989 -71.94957 13504 ft 249 kts 48°
2026-04-21 13:19 41.45975 -71.93052 13507 ft 248 kts 48°
2026-04-21 13:20 41.46959 -71.91152 13501 ft 249 kts 48°
2026-04-21 13:20 41.47945 -71.89245 13501 ft 249 kts 48°
2026-04-21 13:20 41.48913 -71.87371 13502 ft 248 kts 48°
2026-04-21 13:20 41.49894 -71.85473 13504 ft 248 kts 48°
2026-04-21 13:21 41.50871 -71.83581 13509 ft 249 kts 48°
2026-04-21 13:21 41.51856 -71.81672 13501 ft 248 kts 48°
2026-04-21 13:21 41.52841 -71.79762 13501 ft 248 kts 48°
2026-04-21 13:21 41.53821 -71.77860 13433 ft 250 kts 48°
2026-04-21 13:22 41.54825 -71.75916 13189 ft 257 kts 49°
2026-04-21 13:22 41.55836 -71.73950 12950 ft 260 kts 49°
2026-04-21 13:22 41.56853 -71.71967 12705 ft 260 kts 49°
2026-04-21 13:22 41.57874 -71.69978 12462 ft 260 kts 50°
2026-04-21 13:23 41.58900 -71.67982 12227 ft 260 kts 50°
2026-04-21 13:23 41.59922 -71.65991 11990 ft 260 kts 50°
2026-04-21 13:23 41.60942 -71.64004 11760 ft 260 kts 50°
2026-04-21 13:23 41.61966 -71.62007 11530 ft 260 kts 51°
2026-04-21 13:24 41.62978 -71.60030 11297 ft 259 kts 51°
2026-04-21 13:24 41.63996 -71.58043 11068 ft 259 kts 51°
2026-04-21 13:24 41.65022 -71.56040 10866 ft 259 kts 51°
2026-04-21 13:24 41.66036 -71.54058 10644 ft 258 kts 51°
2026-04-21 13:25 41.67048 -71.52077 10421 ft 256 kts 52°
2026-04-21 13:25 41.68061 -71.50092 10184 ft 255 kts 52°
2026-04-21 13:25 41.69051 -71.48152 9929 ft 254 kts 52°
2026-04-21 13:25 41.70035 -71.46224 9681 ft 253 kts 52°
2026-04-21 13:26 41.71028 -71.44276 9432 ft 253 kts 52°
2026-04-21 13:26 41.72019 -71.42330 9177 ft 253 kts 52°
2026-04-21 13:26 41.73013 -71.40377 8911 ft 253 kts 52°
2026-04-21 13:26 41.74001 -71.38434 8639 ft 252 kts 52°
2026-04-21 13:27 41.74985 -71.36496 8371 ft 251 kts 53°
2026-04-21 13:27 41.75972 -71.34556 8112 ft 251 kts 53°
2026-04-21 13:27 41.76955 -71.32619 7879 ft 249 kts 53°
2026-04-21 13:27 41.77913 -71.30730 7674 ft 248 kts 53°
2026-04-21 13:28 41.78882 -71.28817 7469 ft 248 kts 53°
2026-04-21 13:28 41.79852 -71.26904 7264 ft 247 kts 53°
2026-04-21 13:28 41.80819 -71.24996 7049 ft 246 kts 53°
2026-04-21 13:28 41.81787 -71.23086 6841 ft 246 kts 53°
2026-04-21 13:29 41.82732 -71.21218 6615 ft 245 kts 53°
2026-04-21 13:29 41.83693 -71.19328 6398 ft 244 kts 53°
2026-04-21 13:29 41.84606 -71.17423 6179 ft 243 kts 59°
2026-04-21 13:29 41.85296 -71.15376 5964 ft 243 kts 65°
2026-04-21 13:30 41.85931 -71.13271 5745 ft 242 kts 66°
2026-04-21 13:30 41.86555 -71.11175 5549 ft 242 kts 65°
2026-04-21 13:30 41.87170 -71.09103 5507 ft 235 kts 66°
2026-04-21 13:30 41.87770 -71.07074 5494 ft 232 kts 66°
2026-04-21 13:31 41.88407 -71.05100 5506 ft 229 kts 60°
2026-04-21 13:31 41.89142 -71.03224 5500 ft 226 kts 59°
2026-04-21 13:31 41.89881 -71.01388 5499 ft 223 kts 59°
2026-04-21 13:31 41.90668 -70.99578 5388 ft 227 kts 56°
2026-04-21 13:32 41.91502 -70.97749 5151 ft 231 kts 56°
2026-04-21 13:32 41.92357 -70.95937 4910 ft 233 kts 52°
2026-04-21 13:32 41.93352 -70.94230 4662 ft 230 kts 49°
2026-04-21 13:32 41.94344 -70.92550 4430 ft 229 kts 51°
2026-04-21 13:33 41.95294 -70.90833 4177 ft 228 kts 52°
2026-04-21 13:33 41.96220 -70.89136 3951 ft 222 kts 52°
2026-04-21 13:33 41.97133 -70.87485 3690 ft 216 kts 52°
2026-04-21 13:33 41.98000 -70.85923 3459 ft 208 kts 53°
2026-04-21 13:34 41.98869 -70.84355 3187 ft 209 kts 53°
2026-04-21 13:34 41.99740 -70.82784 2881 ft 209 kts 52°
2026-04-21 13:34 42.00604 -70.81223 2579 ft 205 kts 53°
2026-04-21 13:34 42.01419 -70.79743 2282 ft 188 kts 53°
2026-04-21 13:35 42.02174 -70.78376 2007 ft 176 kts 53°
2026-04-21 13:35 42.02890 -70.77125 1819 ft 161 kts 50°
2026-04-21 13:35 42.03553 -70.76037 1735 ft 144 kts 48°
2026-04-21 13:35 42.04200 -70.75072 1662 ft 138 kts 47°
2026-04-21 13:36 42.04852 -70.74148 1655 ft 134 kts 44°
2026-04-21 13:36 42.05491 -70.73276 1509 ft 125 kts 46°
2026-04-21 13:36 42.06044 -70.72468 1267 ft 112 kts 47°
2026-04-21 13:36 42.06568 -70.71734 1069 ft 107 kts 45°
2026-04-21 13:37 42.07060 -70.71044 910 ft 97 kts 45°
2026-04-21 13:37 42.07517 -70.70427 698 ft 89 kts 45°
2026-04-21 13:37 42.07925 -70.69842 602 ft 85 kts 44°
2026-04-21 13:37 42.08350 -70.69273 448 ft 87 kts 43°
2026-04-21 13:38 42.08760 -70.68694 288 ft 83 kts 45°
2026-04-21 13:38 42.09156 -70.68136 121 ft 83 kts 46°
2026-04-21 13:38 42.09545 -70.67590 11 ft 75 kts 46°
2026-04-21 13:38 42.09827 -70.67197 4 ft 23 kts 45°
2026-04-21 13:39 42.09868 -70.67190 5 ft 5 kts 310°
2026-04-21 13:39 42.09885 -70.67214 5 ft 4 kts 315°
2026-04-21 13:39 42.09870 -70.67262 5 ft 9 kts 225°
2026-04-21 13:39 42.09822 -70.67331 5 ft 11 kts 227°
2026-04-21 13:40 42.09763 -70.67412 6 ft 13 kts 226°
2026-04-21 13:40 42.09694 -70.67509 5 ft 14 kts 226°
2026-04-21 13:40 42.09643 -70.67581 7 ft 7 kts 226°
2026-04-21 13:40 42.09637 -70.67623 9 ft 3 kts 319°
2026-04-21 13:41 42.09648 -70.67635 10 ft 1 kts 315°
2026-04-21 13:41 42.09661 -70.67645 10 ft 3 kts 16°
2026-04-21 13:41 42.09669 -70.67636 10 ft 2 kts 45°
2026-04-21 13:41 42.09670 -70.67635 10 ft 0 kts 45°
2026-04-21 13:47 42.09673 -70.67629 7 ft 4 kts 57°
2026-04-21 13:47 42.09638 -70.67587 8 ft 8 kts 218°
2026-04-21 13:47 42.09593 -70.67650 12 ft 11 kts 226°
2026-04-21 13:48 42.09548 -70.67713 9 ft 17 kts 226°
2026-04-21 13:48 42.09481 -70.67807 10 ft 9 kts 225°
2026-04-21 13:48 42.09427 -70.67758 10 ft 6 kts 66°
2026-04-21 13:48 42.09442 -70.67732 9 ft 17 kts 48°
2026-04-21 13:49 42.09565 -70.67560 10 ft 58 kts 45°
2026-04-21 13:49 42.09942 -70.67036 104 ft 87 kts 45°
2026-04-21 13:49 42.10384 -70.66458 474 ft 89 kts 40°
2026-04-21 13:49 42.10703 -70.65773 872 ft 94 kts 76°
2026-04-21 13:50 42.10505 -70.64891 1173 ft 109 kts 121°
2026-04-21 13:50 42.10019 -70.63977 1421 ft 130 kts 118°
2026-04-21 13:50 42.09501 -70.62926 1917 ft 138 kts 120°
2026-04-21 13:50 42.08779 -70.61961 2353 ft 155 kts 145°
2026-04-21 13:51 42.07706 -70.61513 2857 ft 168 kts 175°
2026-04-21 13:51 42.06505 -70.61773 3264 ft 181 kts 197°
2026-04-21 13:51 42.05451 -70.62631 3878 ft 176 kts 225°
2026-04-21 13:51 42.04691 -70.63915 4333 ft 181 kts 241°
2026-04-21 13:52 42.04047 -70.65367 4859 ft 181 kts 242°
2026-04-21 13:52 42.03390 -70.66847 5268 ft 186 kts 242°
2026-04-21 13:52 42.02719 -70.68362 5654 ft 189 kts 243°
2026-04-21 13:52 42.02048 -70.69879 6050 ft 191 kts 243°
2026-04-21 13:53 42.01504 -70.71485 6455 ft 187 kts 264°
2026-04-21 13:53 42.01684 -70.73172 6873 ft 184 kts 287°
2026-04-21 13:53 42.02023 -70.74852 7257 ft 187 kts 285°
2026-04-21 13:53 42.02335 -70.76569 7634 ft 188 kts 285°
2026-04-21 13:54 42.02630 -70.78280 8034 ft 188 kts 284°
2026-04-21 13:54 42.02922 -70.79969 8422 ft 188 kts 285°
2026-04-21 13:54 42.03218 -70.81677 8821 ft 187 kts 285°
2026-04-21 13:54 42.03514 -70.83383 9237 ft 188 kts 285°
2026-04-21 13:55 42.03810 -70.85093 9641 ft 187 kts 285°
2026-04-21 13:55 42.04106 -70.86799 10058 ft 187 kts 285°
2026-04-21 13:55 42.04401 -70.88508 10452 ft 189 kts 285°
2026-04-21 13:55 42.04712 -70.90293 10492 ft 203 kts 285°
2026-04-21 13:56 42.05038 -70.92174 10501 ft 214 kts 285°
2026-04-21 13:56 42.05381 -70.94167 10489 ft 220 kts 285°
2026-04-21 13:56 42.05729 -70.96197 10492 ft 225 kts 285°
2026-04-21 13:56 42.06086 -70.98272 10496 ft 229 kts 285°
2026-04-21 13:57 42.06446 -71.00367 10500 ft 231 kts 285°
2026-04-21 13:57 42.06810 -71.02484 10504 ft 232 kts 285°
2026-04-21 13:57 42.07173 -71.04605 10502 ft 233 kts 285°
2026-04-21 13:57 42.07535 -71.06720 10499 ft 233 kts 285°
2026-04-21 13:58 42.07899 -71.08853 10498 ft 233 kts 285°
2026-04-21 13:58 42.08263 -71.10984 10502 ft 233 kts 285°
2026-04-21 13:58 42.08622 -71.13088 10500 ft 233 kts 285°
2026-04-21 13:58 42.08984 -71.15217 10496 ft 232 kts 285°
2026-04-21 13:59 42.09346 -71.17345 10498 ft 233 kts 285°
2026-04-21 13:59 42.09708 -71.19474 10500 ft 233 kts 285°
2026-04-21 13:59 42.10070 -71.21610 10496 ft 233 kts 285°
2026-04-21 13:59 42.10427 -71.23714 10492 ft 233 kts 285°
2026-04-21 14:00 42.10788 -71.25845 10499 ft 233 kts 285°
2026-04-21 14:00 42.11149 -71.27979 10499 ft 233 kts 285°
2026-04-21 14:00 42.11507 -71.30103 10500 ft 233 kts 285°
2026-04-21 14:00 42.11866 -71.32227 10494 ft 232 kts 285°
2026-04-21 14:01 42.12225 -71.34357 10499 ft 233 kts 285°
2026-04-21 14:01 42.12583 -71.36489 10501 ft 232 kts 285°
2026-04-21 14:01 42.12934 -71.38582 10502 ft 232 kts 285°
2026-04-21 14:01 42.13293 -71.40716 10494 ft 232 kts 285°
2026-04-21 14:02 42.13649 -71.42839 10499 ft 232 kts 285°
2026-04-21 14:02 42.14004 -71.44961 10504 ft 232 kts 285°
2026-04-21 14:02 42.14358 -71.47073 10405 ft 236 kts 285°
2026-04-21 14:03 42.15090 -71.51445 10141 ft 241 kts 285°
2026-04-21 14:03 42.15458 -71.53659 9990 ft 242 kts 285°
2026-04-21 14:03 42.15827 -71.55879 9848 ft 242 kts 285°
2026-04-21 14:03 42.16195 -71.58096 9698 ft 240 kts 284°
2026-04-21 14:04 42.16557 -71.60269 9564 ft 240 kts 285°
2026-04-21 14:04 42.16920 -71.62464 9430 ft 239 kts 284°
2026-04-21 14:04 42.17282 -71.64651 9286 ft 238 kts 284°
2026-04-21 14:04 42.17640 -71.66821 9141 ft 237 kts 284°
2026-04-21 14:05 42.17994 -71.68965 9001 ft 237 kts 284°
2026-04-21 14:05 42.18353 -71.71140 8872 ft 237 kts 284°
2026-04-21 14:05 42.18715 -71.73332 8599 ft 240 kts 284°
2026-04-21 14:05 42.19079 -71.75543 8389 ft 241 kts 284°
2026-04-21 14:06 42.19435 -71.77705 8202 ft 240 kts 283°
2026-04-21 14:06 42.19794 -71.79896 8012 ft 237 kts 283°
2026-04-21 14:06 42.20148 -71.82060 7835 ft 235 kts 283°
2026-04-21 14:06 42.20494 -71.84171 7649 ft 236 kts 283°
2026-04-21 14:07 42.20850 -71.86349 7461 ft 235 kts 283°
2026-04-21 14:07 42.21202 -71.88505 7279 ft 233 kts 283°
2026-04-21 14:07 42.21550 -71.90629 7101 ft 233 kts 283°
2026-04-21 14:07 42.21900 -71.92775 6920 ft 232 kts 282°
2026-04-21 14:08 42.22245 -71.94901 6735 ft 232 kts 282°
2026-04-21 14:08 42.22591 -71.97030 6542 ft 230 kts 282°
2026-04-21 14:08 42.22932 -71.99133 6471 ft 226 kts 282°
2026-04-21 14:08 42.23264 -72.01182 6479 ft 222 kts 282°
2026-04-21 14:09 42.23592 -72.03220 6456 ft 221 kts 282°
2026-04-21 14:09 42.23914 -72.05216 6466 ft 219 kts 282°
2026-04-21 14:09 42.24240 -72.07227 6465 ft 219 kts 282°
2026-04-21 14:09 42.24567 -72.09242 6383 ft 221 kts 282°
2026-04-21 14:10 42.24898 -72.11308 6197 ft 227 kts 282°
2026-04-21 14:10 42.25232 -72.13389 6014 ft 229 kts 282°
2026-04-21 14:10 42.25573 -72.15502 5822 ft 231 kts 282°
2026-04-21 14:10 42.25916 -72.17633 5635 ft 231 kts 282°
2026-04-21 14:11 42.26254 -72.19725 5449 ft 230 kts 282°
2026-04-21 14:11 42.26592 -72.21836 5267 ft 229 kts 282°
2026-04-21 14:11 42.26929 -72.23945 5076 ft 229 kts 282°
2026-04-21 14:11 42.27263 -72.26043 4876 ft 228 kts 282°
2026-04-21 14:12 42.27652 -72.28125 4685 ft 228 kts 285°
2026-04-21 14:12 42.28102 -72.30183 4499 ft 229 kts 286°
2026-04-21 14:12 42.28554 -72.32204 4357 ft 227 kts 286°
2026-04-21 14:12 42.29008 -72.34224 4222 ft 222 kts 286°
2026-04-21 14:13 42.29451 -72.36202 4084 ft 216 kts 286°
2026-04-21 14:13 42.29878 -72.38112 3947 ft 206 kts 286°
2026-04-21 14:13 42.30272 -72.39846 3748 ft 182 kts 287°
2026-04-21 14:13 42.30659 -72.41423 3491 ft 178 kts 288°
2026-04-21 14:14 42.31064 -72.43053 3207 ft 187 kts 288°
2026-04-21 14:14 42.31458 -72.44692 2995 ft 175 kts 288°
2026-04-21 14:14 42.31833 -72.46230 2638 ft 170 kts 287°
2026-04-21 14:14 42.32109 -72.47744 2315 ft 162 kts 279°
2026-04-21 14:15 42.32230 -72.49206 2085 ft 150 kts 272°
2026-04-21 14:15 42.32215 -72.50523 1941 ft 132 kts 265°
2026-04-21 14:15 42.32116 -72.51750 1820 ft 132 kts 262°
2026-04-21 14:15 42.31991 -72.52985 1592 ft 132 kts 261°
2026-04-21 14:16 42.31857 -72.54156 1395 ft 122 kts 261°
2026-04-21 14:16 42.31738 -72.55235 1214 ft 107 kts 260°
2026-04-21 14:16 42.31575 -72.56194 1003 ft 101 kts 255°
2026-04-21 14:16 42.31482 -72.57105 826 ft 98 kts 266°
2026-04-21 14:17 42.31502 -72.58017 625 ft 97 kts 276°
2026-04-21 14:17 42.31657 -72.58898 474 ft 96 kts 291°
2026-04-21 14:17 42.31975 -72.59678 310 ft 93 kts 305°
2026-04-21 14:17 42.32358 -72.60350 185 ft 87 kts 308°
2026-04-21 14:18 42.32703 -72.60952 127 ft 72 kts 307°
2026-04-21 14:18 42.32915 -72.61322 129 ft 24 kts 308°
2026-04-21 14:18 42.32986 -72.61446 130 ft 14 kts 308°
2026-04-21 14:18 42.33014 -72.61516 130 ft 7 kts 243°
2026-04-21 14:19 42.32961 -72.61515 131 ft 9 kts 166°
2026-04-21 14:19 42.32900 -72.61502 131 ft 7 kts 187°
2026-04-21 14:19 42.32866 -72.61470 132 ft 9 kts 106°
2026-04-21 14:19 42.32845 -72.61418 129 ft 7 kts 187°
2026-04-21 14:20 42.32805 -72.61437 131 ft 4 kts 257°
2026-04-21 14:20 42.32808 -72.61452 129 ft 0 kts 285°
2026-04-21 14:32 42.32828 -72.61468 129 ft 6 kts 11°
2026-04-21 14:32 42.32841 -72.61464 132 ft 0 kts 12°
2026-04-21 14:33 42.32868 -72.61483 132 ft 5 kts 286°
2026-04-21 14:33 42.32903 -72.61503 132 ft 8 kts
2026-04-21 14:33 42.32969 -72.61516 131 ft 8 kts 348°
2026-04-21 14:34 42.33035 -72.61537 130 ft 9 kts 336°
2026-04-21 14:34 42.33047 -72.61590 129 ft 4 kts 257°
2026-04-21 14:34 42.33065 -72.61617 128 ft 4 kts
2026-04-21 14:34 42.33073 -72.61600 128 ft 1 kts 127°
2026-04-21 14:35 42.33069 -72.61593 128 ft 9 kts 128°
2026-04-21 14:35 42.32908 -72.61312 129 ft 67 kts 127°
2026-04-21 14:35 42.32545 -72.60680 216 ft 96 kts 128°
2026-04-21 14:35 42.32188 -72.59862 473 ft 109 kts 109°
2026-04-21 14:36 42.32043 -72.58771 794 ft 127 kts 91°
2026-04-21 14:36 42.32047 -72.57937 1053 ft 139 kts 88°
2026-04-21 14:36 42.32102 -72.56558 1464 ft 155 kts 88°
2026-04-21 14:36 42.32171 -72.55044 1971 ft 164 kts 88°
2026-04-21 14:37 42.31860 -72.53567 2541 ft 168 kts 120°
2026-04-21 14:37 42.31263 -72.52175 3100 ft 174 kts 121°
2026-04-21 14:37 42.30664 -72.50753 3655 ft 177 kts 120°
2026-04-21 14:37 42.30056 -72.49285 4225 ft 182 kts 121°
2026-04-21 14:38 42.29429 -72.47768 4793 ft 187 kts 121°
2026-04-21 14:38 42.28793 -72.46232 5352 ft 187 kts 121°
2026-04-21 14:38 42.28150 -72.44677 5919 ft 189 kts 121°
2026-04-21 14:38 42.27505 -72.43117 6484 ft 191 kts 121°
2026-04-21 14:39 42.26844 -72.41521 6912 ft 200 kts 121°
2026-04-21 14:39 42.26154 -72.39859 7263 ft 210 kts 120°
2026-04-21 14:39 42.25431 -72.38117 7623 ft 213 kts 120°
2026-04-21 14:39 42.24701 -72.36355 7990 ft 216 kts 120°
2026-04-21 14:40 42.23960 -72.34570 8360 ft 219 kts 120°
2026-04-21 14:40 42.23205 -72.32753 8684 ft 223 kts 119°
2026-04-21 14:40 42.22452 -72.30941 9008 ft 224 kts 119°
2026-04-21 14:40 42.21685 -72.29095 9334 ft 227 kts 118°
2026-04-21 14:41 42.20911 -72.27237 9662 ft 228 kts 118°
2026-04-21 14:41 42.20133 -72.25367 9997 ft 229 kts 118°
2026-04-21 14:41 42.19350 -72.23488 10328 ft 231 kts 118°
2026-04-21 14:41 42.18559 -72.21590 10627 ft 232 kts 118°
2026-04-21 14:42 42.17781 -72.19725 10919 ft 233 kts 118°
2026-04-21 14:42 42.16983 -72.17813 11226 ft 233 kts 117°
2026-04-21 14:42 42.16183 -72.15899 11525 ft 234 kts 117°
2026-04-21 14:42 42.15376 -72.13968 11696 ft 242 kts 117°
2026-04-21 14:43 42.14526 -72.11935 11700 ft 253 kts 118°
2026-04-21 14:43 42.13654 -72.09856 11705 ft 261 kts 118°
2026-04-21 14:43 42.12754 -72.07710 11708 ft 265 kts 118°
2026-04-21 14:43 42.11846 -72.05546 11712 ft 268 kts 118°
2026-04-21 14:44 42.10942 -72.03390 11967 ft 259 kts 117°
2026-04-21 14:44 42.10060 -72.01287 12251 ft 255 kts 117°
2026-04-21 14:44 42.09192 -71.99217 12540 ft 252 kts 117°
2026-04-21 14:44 42.08331 -71.97167 12832 ft 250 kts 117°
2026-04-21 14:45 42.07488 -71.95164 13121 ft 249 kts 117°
2026-04-21 14:45 42.06632 -71.93129 13418 ft 248 kts 117°
2026-04-21 14:45 42.05763 -71.91065 13499 ft 258 kts 117°
2026-04-21 14:45 42.04873 -71.88952 13503 ft 267 kts 117°
2026-04-21 14:46 42.03945 -71.86755 13499 ft 272 kts 117°
2026-04-21 14:46 42.03002 -71.84525 13499 ft 275 kts 117°
2026-04-21 14:46 42.02050 -71.82273 13510 ft 277 kts 117°
2026-04-21 14:46 42.01095 -71.80014 13519 ft 278 kts 117°
2026-04-21 14:47 42.00136 -71.77748 13513 ft 279 kts 117°
2026-04-21 14:47 41.99188 -71.75509 13519 ft 279 kts 117°
2026-04-21 14:47 41.98211 -71.73204 13512 ft 279 kts 117°
2026-04-21 14:47 41.97260 -71.70961 13521 ft 279 kts 117°
2026-04-21 14:48 41.96296 -71.68690 13522 ft 279 kts 117°
2026-04-21 14:48 41.95332 -71.66419 13511 ft 280 kts 117°
2026-04-21 14:48 41.94364 -71.64141 13522 ft 280 kts 117°
2026-04-21 14:48 41.93398 -71.61870 13513 ft 280 kts 117°
2026-04-21 14:49 41.92433 -71.59603 13518 ft 279 kts 117°
2026-04-21 14:49 41.91479 -71.57365 13523 ft 279 kts 117°
2026-04-21 14:49 41.90511 -71.55094 13514 ft 280 kts 117°
2026-04-21 14:49 41.89544 -71.52828 13516 ft 280 kts 117°
2026-04-21 14:50 41.88576 -71.50561 13521 ft 280 kts 117°
2026-04-21 14:50 41.87603 -71.48286 13510 ft 280 kts 117°
2026-04-21 14:50 41.86645 -71.46045 13522 ft 280 kts 117°
2026-04-21 14:50 41.85675 -71.43778 13518 ft 279 kts 117°
2026-04-21 14:51 41.84708 -71.41520 13518 ft 279 kts 117°
2026-04-21 14:51 41.83739 -71.39260 13519 ft 279 kts 117°
2026-04-21 14:51 41.82770 -71.37001 13533 ft 279 kts 117°
2026-04-21 14:51 41.81800 -71.34742 13537 ft 279 kts 117°
2026-04-21 14:52 41.80830 -71.32484 13536 ft 279 kts 117°
2026-04-21 14:52 41.79857 -71.30222 13537 ft 279 kts 117°
2026-04-21 14:52 41.78898 -71.27992 13532 ft 279 kts 117°
2026-04-21 14:52 41.77925 -71.25734 13526 ft 279 kts 117°
2026-04-21 14:53 41.76956 -71.23484 13531 ft 279 kts 117°
2026-04-21 14:53 41.75985 -71.21231 13535 ft 279 kts 117°
2026-04-21 14:53 41.75013 -71.18979 13531 ft 279 kts 117°
2026-04-21 14:53 41.74038 -71.16724 13521 ft 279 kts 117°
2026-04-21 14:54 41.73078 -71.14502 13521 ft 279 kts 117°
2026-04-21 14:54 41.72105 -71.12254 13519 ft 279 kts 117°
2026-04-21 14:54 41.71131 -71.10003 13516 ft 279 kts 117°
2026-04-21 14:54 41.70158 -71.07758 13517 ft 279 kts 117°
2026-04-21 14:55 41.69184 -71.05512 13517 ft 279 kts 117°
2026-04-21 14:55 41.68208 -71.03260 13520 ft 279 kts 117°
2026-04-21 14:55 41.67234 -71.01017 13520 ft 279 kts 117°
2026-04-21 14:55 41.66270 -70.98800 13519 ft 279 kts 117°
2026-04-21 14:56 41.65295 -70.96557 13520 ft 279 kts 117°
2026-04-21 14:56 41.64318 -70.94312 13514 ft 279 kts 117°
2026-04-21 14:56 41.63336 -70.92058 13521 ft 279 kts 117°
2026-04-21 14:56 41.62370 -70.89840 13519 ft 279 kts 117°
2026-04-21 14:57 41.61392 -70.87598 13516 ft 279 kts 117°
2026-04-21 14:57 41.60413 -70.85356 13519 ft 279 kts 117°
2026-04-21 14:57 41.59435 -70.83116 13520 ft 279 kts 117°
2026-04-21 14:57 41.58454 -70.80873 13519 ft 279 kts 117°
2026-04-21 14:58 41.57475 -70.78634 13510 ft 279 kts 117°
2026-04-21 14:58 41.56507 -70.76423 13505 ft 279 kts 117°
2026-04-21 14:58 41.55529 -70.74191 13508 ft 278 kts 117°
2026-04-21 14:58 41.54549 -70.71956 13507 ft 278 kts 117°
2026-04-21 14:59 41.53568 -70.69720 13494 ft 277 kts 117°
2026-04-21 14:59 41.52580 -70.67469 13200 ft 283 kts 118°
2026-04-21 14:59 41.51588 -70.65213 12883 ft 287 kts 118°
2026-04-21 14:59 41.50573 -70.62909 12560 ft 287 kts 118°
2026-04-21 15:00 41.49559 -70.60606 12273 ft 286 kts 118°
2026-04-21 15:00 41.48559 -70.58335 12005 ft 281 kts 118°
2026-04-21 15:00 41.47581 -70.56117 11747 ft 278 kts 119°
2026-04-21 15:00 41.46606 -70.53904 11489 ft 275 kts 119°
2026-04-21 15:01 41.45637 -70.51707 11231 ft 273 kts 119°
2026-04-21 15:01 41.44674 -70.49526 10910 ft 274 kts 119°
2026-04-21 15:01 41.43524 -70.47501 10470 ft 275 kts 135°
2026-04-21 15:01 41.42103 -70.45795 10027 ft 276 kts 140°
2026-04-21 15:02 41.40639 -70.44155 9524 ft 272 kts 141°
2026-04-21 15:02 41.39213 -70.42579 9037 ft 267 kts 141°
2026-04-21 15:02 41.37785 -70.41003 8553 ft 264 kts 141°
2026-04-21 15:02 41.36406 -70.39479 8504 ft 249 kts 141°
2026-04-21 15:03 41.35096 -70.38030 8081 ft 243 kts 141°
2026-04-21 15:03 41.33816 -70.36613 7432 ft 240 kts 141°
2026-04-21 15:03 41.32542 -70.35205 6794 ft 236 kts 141°
2026-04-21 15:03 41.31287 -70.33823 6122 ft 230 kts 140°
2026-04-21 15:04 41.30084 -70.32410 5461 ft 232 kts 137°
2026-04-21 15:04 41.28894 -70.30957 4880 ft 237 kts 136°
2026-04-21 15:04 41.27672 -70.29461 4288 ft 238 kts 131°
2026-04-21 15:04 41.26539 -70.27845 3709 ft 238 kts 129°
2026-04-21 15:05 41.25446 -70.26190 3119 ft 236 kts 124°
2026-04-21 15:05 41.23638 -70.22703 2317 ft 215 kts 113°
2026-04-21 15:05 41.23080 -70.20977 2170 ft 199 kts 105°
2026-04-21 15:06 41.22661 -70.19376 2040 ft 168 kts 103°
2026-04-21 15:06 41.22313 -70.17946 1821 ft 163 kts 101°
2026-04-21 15:06 41.22012 -70.16489 1639 ft 159 kts 99°
2026-04-21 15:06 41.21768 -70.15109 1445 ft 152 kts 96°
2026-04-21 15:07 41.21604 -70.13814 1343 ft 129 kts 88°
2026-04-21 15:07 41.21608 -70.12747 1220 ft 106 kts 82°
2026-04-21 15:07 41.21680 -70.11783 974 ft 103 kts 72°
2026-04-21 15:07 41.21975 -70.10910 732 ft 102 kts 53°
2026-04-21 15:08 41.22394 -70.10242 682 ft 90 kts 42°
2026-04-21 15:08 41.22844 -70.09672 630 ft 84 kts 41°
2026-04-21 15:08 41.23231 -70.09154 551 ft 77 kts 39°
2026-04-21 15:08 41.23620 -70.08656 413 ft 78 kts 40°
2026-04-21 15:09 41.24009 -70.08144 264 ft 78 kts 40°
2026-04-21 15:09 41.24387 -70.07653 162 ft 72 kts 40°
2026-04-21 15:09 41.24737 -70.07199 86 ft 70 kts 43°
2026-04-21 15:09 41.25052 -70.06781 39 ft 56 kts 44°
2026-04-21 15:10 41.25283 -70.06476 41 ft 31 kts 45°
2026-04-21 15:10 41.25385 -70.06419 44 ft 16 kts 321°
2026-04-21 15:10 41.25461 -70.06517 44 ft 10 kts 315°
2026-04-21 15:10 41.25499 -70.06566 45 ft 6 kts 327°
2026-04-21 15:11 41.25528 -70.06545 45 ft 6 kts 47°
2026-04-21 15:11 41.25553 -70.06511 45 ft 0 kts 46°
2026-04-21 15:11 41.25567 -70.06502 46 ft 5 kts 340°
2026-04-21 15:11 41.25577 -70.06514 46 ft 1 kts 313°